N81590 KSEA-KPDX

Flight info

Callsign N81590
Flight time 0h 28m
Altitude 16000
Route KSEA/16L N0371F160 DCT OZWLD/N0364F150 DCT BUWZO KRATR2 KPDX/28L
Aircraft B738/M-VGDW/C

Departure

Time 2026-05-05 02:02
Airport Seattle–Tacoma International Airport (KSEA)

Arrival

Time 2026-05-05 02:30
Airport Portland International Airport (KPDX)
Time Latitude Longitude Altitude Speed Heading
2026-05-05 01:30 47.43973 -122.29904 393 ft 0 kts 46°
2026-05-05 01:49 47.43973 -122.29905 393 ft 2 kts 44°
2026-05-05 01:49 47.43956 -122.29915 393 ft 3 kts 349°
2026-05-05 01:49 47.43938 -122.29910 393 ft 3 kts 349°
2026-05-05 01:50 47.43928 -122.29907 393 ft 0 kts 349°
2026-05-05 01:54 47.43940 -122.29924 393 ft 7 kts 303°
2026-05-05 01:55 47.43989 -122.30020 393 ft 16 kts 315°
2026-05-05 01:55 47.44051 -122.30147 393 ft 16 kts 279°
2026-05-05 01:55 47.44008 -122.30295 393 ft 16 kts 239°
2026-05-05 01:55 47.43992 -122.30452 393 ft 14 kts 270°
2026-05-05 01:56 47.44001 -122.30606 393 ft 15 kts 300°
2026-05-05 01:56 47.44102 -122.30635 393 ft 16 kts
2026-05-05 01:56 47.44220 -122.30634 393 ft 18 kts 360°
2026-05-05 01:56 47.44353 -122.30633 393 ft 20 kts 359°
2026-05-05 01:57 47.44499 -122.30631 393 ft 22 kts
2026-05-05 01:57 47.44656 -122.30630 393 ft 23 kts
2026-05-05 01:57 47.44825 -122.30628 393 ft 25 kts
2026-05-05 01:57 47.45004 -122.30625 393 ft 26 kts
2026-05-05 01:58 47.45193 -122.30625 393 ft 28 kts 360°
2026-05-05 01:58 47.45389 -122.30626 393 ft 29 kts
2026-05-05 01:58 47.45594 -122.30625 393 ft 30 kts 360°
2026-05-05 01:58 47.45803 -122.30621 393 ft 31 kts
2026-05-05 01:59 47.46019 -122.30618 393 ft 32 kts 359°
2026-05-05 01:59 47.46236 -122.30617 393 ft 18 kts 359°
2026-05-05 01:59 47.46316 -122.30616 393 ft 8 kts 360°
2026-05-05 01:59 47.46362 -122.30636 393 ft 0 kts 319°
2026-05-05 02:00 47.46366 -122.30643 393 ft 5 kts 313°
2026-05-05 02:00 47.46369 -122.30726 393 ft 11 kts 250°
2026-05-05 02:00 47.46334 -122.30777 393 ft 7 kts 192°
2026-05-05 02:01 47.46314 -122.30779 393 ft 7 kts 182°
2026-05-05 02:01 47.45979 -122.30783 393 ft 93 kts 180°
2026-05-05 02:01 47.45068 -122.30804 396 ft 170 kts 181°
2026-05-05 02:01 47.43736 -122.30783 900 ft 198 kts 181°
2026-05-05 02:02 47.42366 -122.30750 2038 ft 200 kts 180°
2026-05-05 02:02 47.40869 -122.30705 2151 ft 213 kts 180°
2026-05-05 02:02 47.39353 -122.30673 2633 ft 224 kts 180°
2026-05-05 02:02 47.37766 -122.30678 3128 ft 232 kts 180°
2026-05-05 02:03 47.36130 -122.30693 3584 ft 237 kts 180°
2026-05-05 02:03 47.34476 -122.30711 4044 ft 240 kts 180°
2026-05-05 02:03 47.32770 -122.30724 4503 ft 250 kts 180°
2026-05-05 02:03 47.30982 -122.30734 4974 ft 263 kts 180°
2026-05-05 02:04 47.29133 -122.30743 5422 ft 273 kts 180°
2026-05-05 02:04 47.27199 -122.30758 5893 ft 282 kts 180°
2026-05-05 02:04 47.25225 -122.30769 6372 ft 284 kts 180°
2026-05-05 02:04 47.23251 -122.30782 6829 ft 285 kts 180°
2026-05-05 02:05 47.21265 -122.30796 7275 ft 286 kts 180°
2026-05-05 02:05 47.19269 -122.30810 7740 ft 287 kts 180°
2026-05-05 02:05 47.17264 -122.30824 8211 ft 290 kts 180°
2026-05-05 02:05 47.15196 -122.30840 8719 ft 305 kts 180°
2026-05-05 02:06 47.13024 -122.30857 9229 ft 320 kts 180°
2026-05-05 02:06 47.10748 -122.30875 9763 ft 334 kts 180°
2026-05-05 02:06 47.08374 -122.30892 10232 ft 348 kts 180°
2026-05-05 02:06 47.05940 -122.30910 10699 ft 360 kts 180°
2026-05-05 02:07 47.03392 -122.30931 11176 ft 372 kts 180°
2026-05-05 02:07 47.00761 -122.30952 11651 ft 383 kts 180°
2026-05-05 02:07 46.98067 -122.30973 12134 ft 391 kts 180°
2026-05-05 02:07 46.95325 -122.30993 12610 ft 396 kts 180°
2026-05-05 02:08 46.92559 -122.31003 13109 ft 400 kts 180°
2026-05-05 02:08 46.89755 -122.31000 13608 ft 404 kts 180°
2026-05-05 02:08 46.86934 -122.30994 14055 ft 408 kts 180°
2026-05-05 02:08 46.84087 -122.30986 14500 ft 411 kts 180°
2026-05-05 02:09 46.81259 -122.30981 14942 ft 414 kts 180°
2026-05-05 02:09 46.78362 -122.30976 14972 ft 414 kts 180°
2026-05-05 02:09 46.75530 -122.30973 14783 ft 402 kts 180°
2026-05-05 02:09 46.72760 -122.30972 14491 ft 393 kts 180°
2026-05-05 02:10 46.70058 -122.30971 14234 ft 384 kts 179°
2026-05-05 02:10 46.67407 -122.30969 13971 ft 377 kts 180°
2026-05-05 02:10 46.64808 -122.30968 13707 ft 371 kts 180°
2026-05-05 02:10 46.62242 -122.30966 13424 ft 367 kts 180°
2026-05-05 02:11 46.59699 -122.30965 13131 ft 365 kts 179°
2026-05-05 02:11 46.57168 -122.30964 12852 ft 363 kts 180°
2026-05-05 02:11 46.54645 -122.30963 12568 ft 361 kts 180°
2026-05-05 02:11 46.52137 -122.30962 12296 ft 360 kts 179°
2026-05-05 02:12 46.49669 -122.30961 12031 ft 359 kts 179°
2026-05-05 02:12 46.44695 -122.30959 11488 ft 356 kts 179°
2026-05-05 02:12 46.42218 -122.30958 11192 ft 355 kts 179°
2026-05-05 02:13 46.39756 -122.30956 10942 ft 353 kts 179°
2026-05-05 02:13 46.37297 -122.30957 10667 ft 352 kts 179°
2026-05-05 02:13 46.34856 -122.30958 10415 ft 351 kts 179°
2026-05-05 02:13 46.32449 -122.30959 10157 ft 350 kts 179°
2026-05-05 02:14 46.30029 -122.30957 10032 ft 346 kts 179°
2026-05-05 02:14 46.27626 -122.30954 10007 ft 343 kts 179°
2026-05-05 02:14 46.25239 -122.31161 9970 ft 347 kts 193°
2026-05-05 02:14 46.23014 -122.32318 10035 ft 334 kts 202°
2026-05-05 02:15 46.20878 -122.33567 9990 ft 327 kts 202°
2026-05-05 02:15 46.18806 -122.34766 9983 ft 315 kts 202°
2026-05-05 02:15 46.16803 -122.35908 9982 ft 304 kts 201°
2026-05-05 02:15 46.14860 -122.37000 9986 ft 297 kts 201°
2026-05-05 02:16 46.12968 -122.38060 9991 ft 295 kts 201°
2026-05-05 02:16 46.11050 -122.39129 9997 ft 297 kts 201°
2026-05-05 02:16 46.09111 -122.40206 9994 ft 302 kts 201°
2026-05-05 02:16 46.07143 -122.41280 10010 ft 302 kts 201°
2026-05-05 02:17 46.05171 -122.42339 9870 ft 303 kts 200°
2026-05-05 02:17 46.03197 -122.43400 9710 ft 303 kts 200°
2026-05-05 02:17 46.01220 -122.44465 9513 ft 303 kts 200°
2026-05-05 02:17 45.99265 -122.45518 9339 ft 298 kts 201°
2026-05-05 02:18 45.97338 -122.46554 9143 ft 294 kts 201°
2026-05-05 02:18 45.95422 -122.47583 8895 ft 295 kts 201°
2026-05-05 02:18 45.93467 -122.48518 8483 ft 298 kts 190°
2026-05-05 02:18 45.91407 -122.48384 8139 ft 297 kts 167°
2026-05-05 02:19 45.89431 -122.47727 7842 ft 297 kts 166°
2026-05-05 02:19 45.87413 -122.47054 7487 ft 298 kts 167°
2026-05-05 02:19 45.85400 -122.46399 7134 ft 294 kts 167°
2026-05-05 02:19 45.83425 -122.45766 6792 ft 288 kts 168°
2026-05-05 02:20 45.81491 -122.45149 6491 ft 280 kts 168°
2026-05-05 02:20 45.79631 -122.44557 6154 ft 269 kts 168°
2026-05-05 02:20 45.77843 -122.43990 5821 ft 257 kts 168°
2026-05-05 02:20 45.76127 -122.43447 5442 ft 248 kts 168°
2026-05-05 02:21 45.74497 -122.42931 5113 ft 240 kts 168°
2026-05-05 02:21 45.72886 -122.42418 4774 ft 234 kts 168°
2026-05-05 02:21 45.71313 -122.41920 4422 ft 228 kts 169°
2026-05-05 02:21 45.69778 -122.41436 4052 ft 223 kts 169°
2026-05-05 02:22 45.68295 -122.40967 4033 ft 218 kts 169°
2026-05-05 02:22 45.66796 -122.40495 4006 ft 222 kts 169°
2026-05-05 02:22 45.65293 -122.40021 4003 ft 220 kts 168°
2026-05-05 02:22 45.63808 -122.39552 3997 ft 218 kts 169°
2026-05-05 02:23 45.62324 -122.39043 3990 ft 221 kts 161°
2026-05-05 02:23 45.61147 -122.37721 4011 ft 221 kts 125°
2026-05-05 02:23 45.60259 -122.35880 4019 ft 227 kts 124°
2026-05-05 02:23 45.59349 -122.34035 3941 ft 227 kts 124°
2026-05-05 02:24 45.58446 -122.32211 3798 ft 228 kts 125°
2026-05-05 02:24 45.57533 -122.30371 3674 ft 226 kts 126°
2026-05-05 02:24 45.56481 -122.28739 3475 ft 222 kts 150°
2026-05-05 02:24 45.55054 -122.28175 3343 ft 210 kts 186°
2026-05-05 02:25 45.53674 -122.28708 3252 ft 204 kts 204°
2026-05-05 02:25 45.52353 -122.29438 3109 ft 204 kts 204°
2026-05-05 02:25 45.51018 -122.30248 3052 ft 209 kts 212°
2026-05-05 02:25 45.50047 -122.31682 3006 ft 199 kts 248°
2026-05-05 02:26 45.49792 -122.33601 3022 ft 199 kts 266°
2026-05-05 02:26 45.49775 -122.35610 2845 ft 206 kts 281°
2026-05-05 02:26 45.50259 -122.37498 2735 ft 204 kts 291°
2026-05-05 02:26 45.50791 -122.39320 2546 ft 188 kts 291°
2026-05-05 02:27 45.51435 -122.40862 2388 ft 181 kts 302°
2026-05-05 02:27 45.52138 -122.42356 2262 ft 183 kts 301°
2026-05-05 02:27 45.52857 -122.43874 2124 ft 186 kts 301°
2026-05-05 02:27 45.53573 -122.45406 2042 ft 184 kts 301°
2026-05-05 02:28 45.54236 -122.46944 1982 ft 181 kts 297°
2026-05-05 02:28 45.54888 -122.48518 1748 ft 187 kts 297°
2026-05-05 02:28 45.55517 -122.50123 1478 ft 183 kts 292°
2026-05-05 02:28 45.55991 -122.51800 1190 ft 183 kts 287°
2026-05-05 02:29 45.56480 -122.53490 1017 ft 186 kts 301°
2026-05-05 02:29 45.57352 -122.54848 662 ft 194 kts 317°
2026-05-05 02:29 45.58209 -122.56276 231 ft 185 kts 295°
2026-05-05 02:29 45.58807 -122.57849 35 ft 175 kts 294°
2026-05-05 02:30 45.59308 -122.59120 35 ft 94 kts 300°
2026-05-05 02:30 45.59450 -122.59498 30 ft 17 kts 282°
2026-05-05 02:30 45.59411 -122.59599 27 ft 1 kts 205°
2026-05-05 02:30 45.59407 -122.59601 27 ft 0 kts 204°
2026-05-05 02:31 45.59406 -122.59602 27 ft 1 kts 205°
2026-05-05 02:31 45.59401 -122.59606 27 ft 1 kts 206°
2026-05-05 02:31 45.59373 -122.59595 27 ft 10 kts 142°
2026-05-05 02:32 45.59321 -122.59473 30 ft 18 kts 119°
2026-05-05 02:32 45.59249 -122.59288 32 ft 24 kts 120°
2026-05-05 02:32 45.59158 -122.59056 35 ft 30 kts 119°
2026-05-05 02:32 45.59046 -122.58770 33 ft 36 kts 119°
2026-05-05 02:33 45.58914 -122.58430 31 ft 36 kts 119°
2026-05-05 02:33 45.58820 -122.58187 36 ft 26 kts 118°
2026-05-05 02:33 45.58724 -122.57944 37 ft 30 kts 119°
2026-05-05 02:33 45.58638 -122.57724 34 ft 16 kts 118°
2026-05-05 02:34 45.58590 -122.57677 34 ft 11 kts 192°
2026-05-05 02:34 45.58538 -122.57712 34 ft 8 kts 208°
2026-05-05 02:34 45.58530 -122.57793 33 ft 11 kts 296°
2026-05-05 02:34 45.58548 -122.57842 33 ft 0 kts 298°
2026-05-05 02:35 45.58549 -122.57845 33 ft 0 kts 298°